カタログに戻る

STARLINK-33655

運用中通信VLEO
NORAD 63424·PAYLOAD·🇺🇸 United States

打ち上げ Mar 31, 2025 から Cape Canaveral Space Force Station

Loading…

次のパス (今後24時間)

TLE

最新Source: CelesTrak SupGP

元期: Sep 15, 2026, 03:28 UTC

1 63424C 25065AB  26258.14493056  .00037190  00000+0  13467-2 0  2582
2 63424  42.9994 117.4603 0001467 275.6822 315.9216 15.27566703    10

AllMySatでSTARLINK-33655をリアルタイム追跡

Download on the App Store